Home > Weather > Victoria > Past weeks

Flag for Seychelles Weather for the Past 2 Weeks in Victoria, Seychelles

Now
82 °F

Passing clouds.


Feels Like: 89 °F
Forecast: 78 / 84 °F
Wind: 3 mph from East

Location: National Airport

Current Time: May 3, 2016 at 10:34:29 PM

Latest Report: May 3, 2016 at 10:00 PM


Visibility: N/A

Pressure: 29.83 "Hg

Humidity: 79%

Dew Point: 75 °F

Location of VictoriaLocation

Historic Weather in Victoria — Graph

°F

Victoria Temperature Yesterday

Maximum temperature yesterday: 88 °F (at 9:00 AM)
Minimum temperature yesterday: 81 °F (at 12:00 AM)
Average temperature yesterday: 83 °F

High & Low Weather Summary for the Past Weeks

 TemperatureHumidityPressure
High91 °F (Apr 23, 2:00 PM)100% (Apr 21, 3:00 AM)29.95 "Hg (Apr 21, 3:00 AM)
Low77 °F (Apr 21, 3:00 AM)55% (Apr 24, 2:00 PM)29.71 "Hg (Apr 24, 3:00 PM)
Average84 °F77%29.81 "Hg
* Reported Apr 18 9:00 PM — May 3 9:00 PM, Victoria, Weather by CustomWeather, © 2016

Note: Actual official high and low records may vary slightly from our data, if they occured in-between our weather recording intervals... More about our weather records

Advertising

Victoria Weather History for the Previous 24 Hours

Scroll right to see more
 ConditionsComfort  
Time TempWeatherWind HumidityBarometerVisibility
9:00 PM
Tue, May 3
82 °FPassing clouds.No wind79%29.83 "HgN/A
8:00 PM84 °FPassing clouds.3 mph74%29.83 "HgN/A
7:00 PM82 °FPassing clouds.6 mph84%29.80 "HgN/A
6:00 PM86 °FPassing clouds.2 mph75%29.80 "HgN/A
5:00 PM88 °FPassing clouds.6 mph70%29.80 "HgN/A
4:00 PM90 °FPassing clouds.7 mph63%29.77 "HgN/A
3:00 PM88 °FScattered clouds.10 mph70%29.80 "HgN/A
2:00 PM88 °FPartly sunny.7 mph70%29.83 "HgN/A
1:00 PM88 °FBroken clouds.5 mph75%29.86 "HgN/A
12:00 PM86 °FBroken clouds.No wind75%29.89 "HgN/A
11:00 AM84 °FSprinkles. Broken clouds.5 mph58%29.89 "HgN/A
10:00 AM86 °FSprinkles. Broken clouds.5 mph62%29.92 "HgN/A
9:00 AM86 °FSprinkles. Broken clouds.9 mph62%29.89 "HgN/A
8:00 AM84 °FScattered clouds.No wind79%29.86 "HgN/A
7:00 AM82 °FScattered clouds.No wind84%29.83 "HgN/A
6:00 AM81 °FPassing clouds.No wind89%29.80 "HgN/A
5:00 AM81 °FPassing clouds.No wind84%29.77 "HgN/A
4:00 AM84 °FPassing clouds.6 mph74%29.77 "HgN/A
3:00 AM82 °FPassing clouds.No wind84%29.74 "HgN/A
2:00 AM84 °FPassing clouds.8 mph70%29.77 "HgN/A
1:00 AM84 °FPartly cloudy.10 mph74%29.80 "HgN/A
12:00 AM84 °FPassing clouds.7 mph74%29.80 "HgN/A
11:00 PM
Mon, May 2
84 °FPassing clouds.5 mph79%29.83 "HgN/A
10:00 PM82 °FPassing clouds.3 mph84%29.83 "HgN/A
Weather by CustomWeather, © 2016

See weather overviewHow to use our weather pages